Starlink 31960

operational
NORAD ID: 59931 Int'l Des: 2024-106 Owner: SPXS Country: US Constellation: starlink
LEOCIRCULAR

About Starlink 31960

Description loading...

Live Position

Loading 3D Globe...

Upcoming Passes

Altitude History

Altitude vs Time

uPlot chart will show altitude changes over time

Two-Line Element Set

1 59931U 24106K 25302.51186882 .00001751 00000-0 73106-4 0 9996
2 59931 43.0025 353.1076 0001030 266.1442 93.9292 15.27585555 80467
Epoch: Oct 29, 2025 • Age: 37 hours

Current Status

Altitude 486.6 km
Velocity 7.63 km/s
Sub-Earth Point 41.87°N, 39.63°E
Launch Date Jun 1, 2024
Age 1.4 years
Type internet

Technical Details

Classification Payload
Mass 730.00 kg
Dry Mass 700.00 kg
Total Mass 730.00 kg
Length 0.30 m
Diameter 4.10 m
Span 29.00 m
Shape Box + pan
Manufacturer SPXS
Bus Type Starlink V2M
Phase Status In Orbit
Owner/State SPXS/US

Large Constellations

Loading constellations...